Year,Month,Day,Hour,Minute,Value (Times are PST for temperature in C)
2010,10,21,09,10,7.40
2010,10,21,09,11,7.40
2010,10,21,09,12,7.40
2010,10,21,09,13,7.50
2010,10,21,09,14,7.50
2010,10,21,09,15,7.50
2010,10,21,09,16,7.60
2010,10,21,09,17,7.60
2010,10,21,09,18,7.60
2010,10,21,09,19,7.60
2010,10,21,09,20,7.70
2010,10,21,09,21,7.70
2010,10,21,09,22,7.70
2010,10,21,09,23,7.80
2010,10,21,09,24,7.80
2010,10,21,09,25,7.80
2010,10,21,09,26,7.80
2010,10,21,09,27,7.80
2010,10,21,09,28,7.90
2010,10,21,09,29,7.90
2010,10,21,09,30,7.90
2010,10,21,09,31,7.90
2010,10,21,09,32,7.90
2010,10,21,09,33,7.90
2010,10,21,09,34,7.90
2010,10,21,09,35,7.90
2010,10,21,09,36,7.90
2010,10,21,09,37,7.90
2010,10,21,09,38,7.90
2010,10,21,09,39,7.90
2010,10,21,09,40,8.00
2010,10,21,09,41,8.00
2010,10,21,09,42,8.00
2010,10,21,09,43,8.00
2010,10,21,09,44,8.10
2010,10,21,09,45,8.10
2010,10,21,09,46,8.10
2010,10,21,09,47,8.10
2010,10,21,09,48,8.10
2010,10,21,09,49,8.10
2010,10,21,09,50,8.10
2010,10,21,09,51,8.20
2010,10,21,09,52,8.20
2010,10,21,09,53,8.20
2010,10,21,09,54,8.30
2010,10,21,09,55,8.30
2010,10,21,09,56,8.30
2010,10,21,09,57,8.40
2010,10,21,09,58,8.40
2010,10,21,09,59,8.40
2010,10,21,10,00,8.50
2010,10,21,10,01,8.50
2010,10,21,10,02,8.50
2010,10,21,10,03,8.60
2010,10,21,10,04,8.60
2010,10,21,10,05,8.60
2010,10,21,10,06,8.60
2010,10,21,10,07,8.60
2010,10,21,10,08,8.60
2010,10,21,10,09,8.60
2010,10,21,10,10,8.70
2010,10,21,10,11,8.70
2010,10,21,10,12,8.70
2010,10,21,10,13,8.80
2010,10,21,10,14,8.80
2010,10,21,10,15,8.80
2010,10,21,10,16,8.90
2010,10,21,10,17,8.90
2010,10,21,10,18,8.90
2010,10,21,10,19,8.90
2010,10,21,10,20,8.90
2010,10,21,10,21,8.90
2010,10,21,10,22,8.90
2010,10,21,10,23,8.80
2010,10,21,10,24,8.90
2010,10,21,10,25,8.90
2010,10,21,10,26,8.90
2010,10,21,10,27,8.90
2010,10,21,10,28,8.90
2010,10,21,10,29,8.90
2010,10,21,10,30,8.90
2010,10,21,10,31,8.90
2010,10,21,10,32,8.90
2010,10,21,10,33,9.00
2010,10,21,10,34,9.00
2010,10,21,10,35,9.00
2010,10,21,10,36,9.00
2010,10,21,10,37,9.00
2010,10,21,10,38,9.00
2010,10,21,10,39,9.00
2010,10,21,10,40,9.00
2010,10,21,10,41,8.90
2010,10,21,10,42,8.90
2010,10,21,10,43,8.90
2010,10,21,10,44,8.90
2010,10,21,10,45,8.80
2010,10,21,10,46,8.80
2010,10,21,10,47,8.80
2010,10,21,10,48,8.80
2010,10,21,10,49,8.80
2010,10,21,10,50,8.80
2010,10,21,10,51,8.80
2010,10,21,10,52,8.70
2010,10,21,10,53,8.70
2010,10,21,10,54,8.70
2010,10,21,10,55,8.70
2010,10,21,10,56,8.70
2010,10,21,10,57,8.80
2010,10,21,10,58,8.80
2010,10,21,10,59,8.80
2010,10,21,11,00,8.80
2010,10,21,11,01,8.90
2010,10,21,11,02,8.90
2010,10,21,11,03,8.90
2010,10,21,11,04,8.90
2010,10,21,11,05,8.90
2010,10,21,11,06,8.90
2010,10,21,11,07,8.90
2010,10,21,11,08,8.90
2010,10,21,11,09,8.90
2010,10,21,11,10,9.00
2010,10,21,11,11,9.00
2010,10,21,11,12,9.10
2010,10,21,11,13,9.10
2010,10,21,11,14,9.20
2010,10,21,11,15,9.20
2010,10,21,11,16,9.20
2010,10,21,11,17,9.30
2010,10,21,11,18,9.30
2010,10,21,11,19,9.20
2010,10,21,11,20,9.20
2010,10,21,11,21,9.20
2010,10,21,11,22,9.20
2010,10,21,11,23,9.20
2010,10,21,11,24,9.30
2010,10,21,11,25,9.30
2010,10,21,11,26,9.40
2010,10,21,11,27,9.40
2010,10,21,11,28,9.50
2010,10,21,11,29,9.50
2010,10,21,11,30,9.60
2010,10,21,11,31,9.60
2010,10,21,11,32,9.60
2010,10,21,11,33,9.60
2010,10,21,11,34,9.60
2010,10,21,11,35,9.50
2010,10,21,11,36,9.50
2010,10,21,11,37,9.50
2010,10,21,11,38,9.40
2010,10,21,11,39,9.40
2010,10,21,11,40,9.30
2010,10,21,11,41,9.30
2010,10,21,11,42,9.20
2010,10,21,11,43,9.20
2010,10,21,11,44,9.10
2010,10,21,11,45,9.10
2010,10,21,11,46,9.10
2010,10,21,11,47,9.20
2010,10,21,11,48,9.20
2010,10,21,11,49,9.10
2010,10,21,11,50,9.10
2010,10,21,11,51,9.00
2010,10,21,11,52,9.00
2010,10,21,11,53,9.00
2010,10,21,11,54,9.10
2010,10,21,11,55,9.10
2010,10,21,11,56,9.20
2010,10,21,11,57,9.20
2010,10,21,11,58,9.20
2010,10,21,11,59,9.20
2010,10,21,12,00,9.30
2010,10,21,12,01,9.30
2010,10,21,12,02,9.30
2010,10,21,12,03,9.30
2010,10,21,12,04,9.40
2010,10,21,12,05,9.40
2010,10,21,12,06,9.40
2010,10,21,12,07,9.40
2010,10,21,12,08,9.40
2010,10,21,12,09,9.50
2010,10,21,12,10,9.50
2010,10,21,12,11,9.50
2010,10,21,12,12,9.60
2010,10,21,12,13,9.60
2010,10,21,12,14,9.60
2010,10,21,12,15,9.50
2010,10,21,12,16,9.40
2010,10,21,12,17,9.40
2010,10,21,12,18,9.30
2010,10,21,12,19,9.30
2010,10,21,12,20,9.30
2010,10,21,12,21,9.20
2010,10,21,12,22,9.20
2010,10,21,12,23,9.10
2010,10,21,12,24,9.10
2010,10,21,12,25,9.10
2010,10,21,12,26,9.00
2010,10,21,12,27,9.10
2010,10,21,12,28,9.00
2010,10,21,12,29,9.00
2010,10,21,12,30,9.00
2010,10,21,12,31,9.00
2010,10,21,12,32,8.90
2010,10,21,12,33,9.00
2010,10,21,12,34,9.00
2010,10,21,12,35,9.00
2010,10,21,12,36,9.10
2010,10,21,12,37,9.10
2010,10,21,12,38,9.20
2010,10,21,12,39,9.20
2010,10,21,12,40,9.20
2010,10,21,12,41,9.20
2010,10,21,12,42,9.10
2010,10,21,12,43,9.10
2010,10,21,12,44,9.00
2010,10,21,12,45,9.00
2010,10,21,12,46,9.00
2010,10,21,12,47,9.00
2010,10,21,12,48,9.00
2010,10,21,12,49,9.10
2010,10,21,12,50,9.10
2010,10,21,12,51,9.10
2010,10,21,12,52,9.20
2010,10,21,12,53,9.20
2010,10,21,12,54,9.30
2010,10,21,12,55,9.30
2010,10,21,12,56,9.30
2010,10,21,12,57,9.30
2010,10,21,12,58,9.30
2010,10,21,12,59,9.30
2010,10,21,13,00,9.20
2010,10,21,13,01,9.20
2010,10,21,13,02,9.10
2010,10,21,13,03,9.10
2010,10,21,13,04,9.00
2010,10,21,13,05,9.00
2010,10,21,13,06,8.90
2010,10,21,13,07,9.00
2010,10,21,13,08,9.00
2010,10,21,13,09,9.00
2010,10,21,13,10,9.00
2010,10,21,13,11,9.00
2010,10,21,13,12,9.10
2010,10,21,13,13,9.10
2010,10,21,13,14,9.10
2010,10,21,13,15,9.20
2010,10,21,13,16,9.20
2010,10,21,13,17,9.20
2010,10,21,13,18,9.20
2010,10,21,13,19,9.20
2010,10,21,13,20,9.20
2010,10,21,13,21,9.20
2010,10,21,13,22,9.20
2010,10,21,13,23,9.10
2010,10,21,13,24,9.10
2010,10,21,13,25,9.10
2010,10,21,13,26,9.10
2010,10,21,13,27,9.10
2010,10,21,13,28,9.10
2010,10,21,13,29,9.10
2010,10,21,13,30,9.10
2010,10,21,13,31,9.10
2010,10,21,13,32,9.10
2010,10,21,13,33,9.10
2010,10,21,13,34,9.10
2010,10,21,13,35,9.20
2010,10,21,13,36,9.20
2010,10,21,13,37,9.30
2010,10,21,13,38,9.30
2010,10,21,13,39,9.40
2010,10,21,13,40,9.60
2010,10,21,13,41,9.60
2010,10,21,13,42,9.70
2010,10,21,13,43,9.70
2010,10,21,13,44,9.80
2010,10,21,13,45,9.80
2010,10,21,13,46,9.90
2010,10,21,13,47,10.00
2010,10,21,13,48,10.10
2010,10,21,13,49,10.20
2010,10,21,13,50,10.20
2010,10,21,13,51,10.30
2010,10,21,13,52,10.40
2010,10,21,13,53,10.40
2010,10,21,13,54,10.40
2010,10,21,13,55,10.40
2010,10,21,13,56,10.40
2010,10,21,13,57,10.50
2010,10,21,13,58,10.50
2010,10,21,13,59,10.60
2010,10,21,14,00,10.60
2010,10,21,14,01,10.60
2010,10,21,14,02,10.60
2010,10,21,14,03,10.60
2010,10,21,14,04,10.60
2010,10,21,14,05,10.60
2010,10,21,14,06,10.50
2010,10,21,14,07,10.40
2010,10,21,14,08,10.40
2010,10,21,14,09,10.40
2010,10,21,14,10,10.40
2010,10,21,14,11,10.40
2010,10,21,14,12,10.40
2010,10,21,14,13,10.40
2010,10,21,14,14,10.40
2010,10,21,14,15,10.40
2010,10,21,14,16,10.40
2010,10,21,14,17,10.40
2010,10,21,14,18,10.40
2010,10,21,14,19,10.40
2010,10,21,14,20,10.40
2010,10,21,14,21,10.50
2010,10,21,14,22,10.50
2010,10,21,14,23,10.50
2010,10,21,14,24,10.50
2010,10,21,14,25,10.60
2010,10,21,14,26,10.60
2010,10,21,14,27,10.60
2010,10,21,14,28,10.50
2010,10,21,14,29,10.50
2010,10,21,14,30,10.50
2010,10,21,14,31,10.60
2010,10,21,14,32,10.60
2010,10,21,14,33,10.60
2010,10,21,14,34,10.60
2010,10,21,14,35,10.60
2010,10,21,14,36,10.60
2010,10,21,14,37,10.60
2010,10,21,14,38,10.70
2010,10,21,14,39,10.70
2010,10,21,14,40,10.80
2010,10,21,14,41,10.80
2010,10,21,14,42,10.80
2010,10,21,14,43,10.80
2010,10,21,14,44,10.80
2010,10,21,14,45,10.80
2010,10,21,14,46,10.90
2010,10,21,14,47,10.90
2010,10,21,14,48,10.90
2010,10,21,14,49,11.00
2010,10,21,14,50,11.00
2010,10,21,14,51,11.00
2010,10,21,14,52,11.00
2010,10,21,14,53,10.90
2010,10,21,14,54,10.90
2010,10,21,14,55,10.90
2010,10,21,14,56,10.90
2010,10,21,14,57,10.90
2010,10,21,14,58,10.90
2010,10,21,14,59,10.90
2010,10,21,15,00,10.90
2010,10,21,15,01,10.80
2010,10,21,15,02,10.80
2010,10,21,15,03,10.80
2010,10,21,15,04,10.80
2010,10,21,15,05,10.80
2010,10,21,15,06,10.80
2010,10,21,15,07,10.80
2010,10,21,15,08,10.80
2010,10,21,15,09,10.90
2010,10,21,15,10,10.90
2010,10,21,15,11,10.90
2010,10,21,15,12,10.90
2010,10,21,15,13,11.00
2010,10,21,15,14,11.00
2010,10,21,15,15,11.00
2010,10,21,15,16,10.90
2010,10,21,15,17,10.90
2010,10,21,15,18,10.90
2010,10,21,15,19,11.00
2010,10,21,15,20,11.00
2010,10,21,15,21,11.00
2010,10,21,15,22,11.10
2010,10,21,15,23,11.10
2010,10,21,15,24,11.10
2010,10,21,15,25,11.10
2010,10,21,15,26,11.10
2010,10,21,15,27,11.10
2010,10,21,15,28,11.10
2010,10,21,15,29,11.10
2010,10,21,15,30,11.10
2010,10,21,15,31,11.10
2010,10,21,15,32,11.10
2010,10,21,15,33,11.10
2010,10,21,15,34,11.00
2010,10,21,15,35,11.00
2010,10,21,15,36,11.00
2010,10,21,15,37,11.00
2010,10,21,15,38,11.00
2010,10,21,15,39,11.00
2010,10,21,15,40,11.00
2010,10,21,15,41,11.00
2010,10,21,15,42,11.00
2010,10,21,15,43,11.00
2010,10,21,15,44,11.10
2010,10,21,15,45,11.10
2010,10,21,15,46,11.10
2010,10,21,15,47,11.10
2010,10,21,15,48,11.10
2010,10,21,15,49,11.10
2010,10,21,15,50,11.10
2010,10,21,15,51,11.10
2010,10,21,15,52,11.10
2010,10,21,15,53,11.10
2010,10,21,15,54,11.10
2010,10,21,15,55,11.10
2010,10,21,15,56,11.10
2010,10,21,15,57,11.00
2010,10,21,15,58,11.00
2010,10,21,15,59,11.00
2010,10,21,16,00,10.90
2010,10,21,16,01,10.90
2010,10,21,16,02,10.90
2010,10,21,16,03,10.90
2010,10,21,16,04,10.90
2010,10,21,16,05,10.90
2010,10,21,16,06,10.90
2010,10,21,16,07,10.90
2010,10,21,16,08,10.90
2010,10,21,16,09,10.90
